Wind_Speed
13 13 14 15 15 16 17 18 18 18 18 18 17 16 15 13 13 14 15 15 15 14 14 14 14 14 12 11 10 9 9 10 11 11 12 12 13 14 15 15 14 14 13 13 12 11 12 12 11 11 10 10 9 9 9 9 8 8 8 8 7 6 6
15 15 14 15 15 15 17 18 19 20 19 19 19 18 17 16 14 15 16 17 17 16 15 15 15 15 13 12 12 11 10 10 10 11 12 12 13 14 15 15 15 14 14 13 13 13 13 12 11 11 10 10 10 9 9 9 9 8 8 7 6 5 5
19 17 17 16 16 16 16 17 19 21 22 22 20 19 19 19 18 18 18 18 18 17 16 16 16 16 15 14 13 13 12 11 11 12 12 12 13 13 14 15 15 14 14 14 13 13 13 12 11 11 11 11 10 10 10 9 9 8 7 7 6 5 4
22 20 19 18 18 18 17 17 17 19 21 21 20 20 20 20 19 18 18 18 19 19 18 18 17 17 16 16 15 14 14 13 12 13 13 13 13 13 13 14 14 14 14 14 14 13 13 12 12 11 11 11 11 10 10 10 9 9 8 7 7 6 5
24 23 22 21 20 20 20 19 18 18 19 21 22 24 23 21 20 19 18 17 18 19 20 18 17 16 17 17 17 16 15 15 14 13 13 13 13 13 13 13 14 14 13 14 13 13 13 12 12 12 11 11 11 11 11 10 10 10 9 8 7 6 6
22 24 25 24 23 22 21 21 20 19 20 22 24 27 27 24 22 21 19 17 17 19 20 19 18 17 18 18 18 17 16 16 15 15 14 13 13 13 14 14 14 13 13 13 13 14 13 13 12 12 12 12 12 11 11 11 11 10 9 8 8 7 8
18 21 24 25 24 24 23 22 21 21 22 22 24 28 29 26 23 22 20 18 18 18 19 19 19 19 19 20 20 19 19 18 17 16 15 15 14 15 14 14 15 14 13 13 14 14 13 13 12 12 12 12 12 12 12 11 11 10 9 9 9 9 9
17 18 21 23 24 25 25 24 22 21 22 22 22 25 28 28 26 23 21 21 20 18 18 19 20 21 21 21 21 21 21 21 19 18 17 17 16 16 16 16 16 15 14 14 14 13 13 12 13 13 12 12 12 13 13 12 12 12 12 12 12 11 10
16 17 18 20 21 23 25 25 24 23 22 22 22 23 26 29 30 27 23 22 22 20 19 20 21 22 22 21 22 23 23 23 21 20 19 19 19 18 18 17 17 16 16 15 14 14 14 14 14 14 13 14 14 14 14 14 14 15 14 13 12 12 11
16 16 16 17 19 20 22 24 25 25 23 21 22 23 25 27 30 30 27 24 23 23 22 22 22 23 23 22 22 23 23 23 23 22 21 21 21 21 20 19 18 17 17 16 15 15 15 16 16 15 15 16 16 16 16 16 16 15 14 13 12 12 12
17 17 17 17 17 18 20 22 24 25 24 21 21 23 25 26 29 32 31 26 24 25 25 24 23 23 23 23 23 23 23 24 24 23 23 23 23 23 22 21 20 19 19 18 17 17 17 17 17 17 17 17 17 17 17 17 16 15 14 13 13 13 12
18 18 18 17 17 17 19 20 22 24 24 23 22 22 24 25 28 32 34 30 26 26 27 26 25 24 24 24 24 23 23 24 24 24 25 25 25 25 24 22 21 21 21 20 20 20 19 19 18 18 18 18 18 18 17 17 17 16 14 13 13 13 13
18 19 20 19 17 17 18 19 21 23 24 24 23 23 24 25 27 31 35 34 30 28 28 27 26 26 26 26 25 25 24 24 24 25 26 26 27 27 25 24 23 23 23 22 21 21 21 21 20 20 19 19 19 19 19 19 19 18 16 14 14 14 13
18 19 20 20 19 17 18 19 20 22 23 24 24 24 24 25 26 28 34 37 35 31 29 28 27 28 28 27 27 26 25 25 25 26 26 27 27 27 26 25 24 24 24 23 22 23 23 22 21 21 21 21 21 22 21 21 21 20 17 15 16 16 16
18 18 19 21 20 19 18 19 20 21 22 23 24 24 24 25 26 26 29 35 37 35 31 30 28 28 29 28 28 28 28 28 27 27 26 26 26 26 26 26 25 25 25 24 24 24 25 24 23 22 22 23 23 23 23 22 20 18 17 17 19 18 18
18 17 18 20 22 22 21 20 20 20 21 21 23 24 24 24 25 25 25 29 34 36 35 33 31 29 28 28 28 29 30 30 29 29 28 27 26 26 26 26 26 26 26 25 25 26 26 25 24 23 23 24 23 23 22 20 18 18 18 18 18 18 19
18 18 18 19 21 23 23 22 22 21 21 21 21 23 23 23 23 23 23 25 28 33 36 36 34 31 29 28 28 30 31 31 31 31 30 28 28 27 26 27 27 27 27 27 27 27 27 27 25 25 24 24 23 22 21 19 19 20 20 18 18 19 20
19 19 19 19 20 22 23 24 23 23 22 21 21 22 23 23 23 23 23 24 26 29 32 34 36 35 32 29 29 30 31 32 32 32 32 31 30 29 29 29 28 28 28 28 28 29 29 28 27 26 25 24 23 22 21 20 21 22 21 19 19 19 20
20 19 20 20 20 21 23 24 24 23 22 22 22 22 23 23 24 23 23 24 25 27 28 30 34 38 36 33 30 29 30 31 32 32 33 33 33 32 32 31 30 29 30 30 30 30 30 29 28 27 26 25 24 23 23 23 24 24 23 22 21 22 23
21 20 20 21 21 21 22 24 24 24 23 22 22 22 23 23 24 24 24 23 24 26 27 27 31 37 39 36 34 32 31 31 32 32 33 34 34 34 33 32 31 31 31 32 32 31 31 30 29 29 28 27 26 25 25 26 27 27 26 24 23 24 26
21 21 21 21 21 21 22 24 25 24 24 23 23 23 23 23 24 24 24 24 24 24 25 25 27 32 38 38 37 36 35 33 32 32 33 33 34 34 33 32 31 31 32 33 33 33 32 32 32 31 31 30 29 29 28 28 29 29 28 26 25 24 25
20 21 22 23 22 22 22 24 25 25 25 25 24 23 24 24 24 24 25 25 25 24 24 24 25 28 34 37 38 38 38 37 36 35 33 33 33 33 33 33 33 32 32 33 34 34 33 33 33 33 33 32 32 31 31 31 31 30 29 27 26 25 25
19 20 21 22 23 23 22 24 25 26 26 26 26 25 24 24 24 25 25 25 26 25 25 25 26 28 31 34 37 39 41 41 40 38 37 35 33 32 33 34 34 34 34 33 33 34 33 33 34 34 34 34 34 33 33 32 32 31 29 27 26 26 27
18 19 20 22 23 24 23 24 25 26 27 27 27 26 25 25 25 25 25 25 25 26 26 27 28 29 31 32 34 37 40 43 43 42 40 38 35 33 33 34 35 35 35 33 33 33 33 33 34 35 35 36 35 35 34 34 33 31 29 28 28 28 28
19 19 20 21 22 23 24 24 25 26 27 28 28 28 27 26 26 26 26 26 25 25 27 28 30 31 31 32 32 34 37 42 45 44 42 40 38 36 36 36 35 35 34 34 33 34 34 34 34 35 36 37 36 36 36 35 34 33 31 31 31 31 30
18 18 19 20 21 23 24 25 25 26 27 28 29 29 29 28 27 27 27 27 26 26 27 28 29 30 31 32 32 32 34 38 43 44 44 42 41 40 39 38 36 35 35 34 34 34 35 35 35 36 37 37 36 36 37 37 36 36 35 34 33 33 33
17 17 18 19 21 22 23 24 25 27 28 28 29 29 30 29 29 28 28 27 27 27 27 27 28 29 30 31 32 32 32 35 39 42 44 45 45 43 41 39 36 35 36 36 36 37 37 37 37 38 39 37 36 36 38 40 39 39 39 38 37 36 36
17 17 18 19 20 21 22 23 24 26 27 29 29 29 30 30 30 29 28 26 26 27 27 27 28 28 29 29 30 31 32 33 36 39 42 45 46 45 43 40 38 37 38 39 39 40 41 41 39 40 40 39 38 39 41 41 42 42 42 41 41 40 39
17 17 18 19 20 21 22 22 23 24 26 28 29 30 31 31 30 31 29 27 25 25 26 26 27 27 28 28 28 28 30 32 34 35 38 42 44 44 44 43 41 40 40 41 41 42 44 44 43 42 41 39 41 45 46 45 45 45 44 44 44 43 42
18 18 18 19 20 21 22 22 22 23 24 26 28 30 31 31 31 31 31 30 27 26 25 25 25 26 27 27 27 27 28 31 32 34 36 39 42 44 44 45 44 43 42 42 42 43 44 45 46 46 44 42 43 47 49 49 47 47 46 45 45 45 44
19 19 19 20 21 21 22 22 23 22 22 23 26 28 30 32 32 32 32 32 30 28 27 26 25 25 25 26 27 28 28 30 31 33 35 37 39 41 42 43 44 44 43 43 44 45 45 46 48 49 48 47 47 49 51 51 49 47 47 47 47 46 45
21 21 21 21 21 22 22 22 22 22 21 21 22 26 29 31 32 32 32 32 31 30 29 27 26 25 25 26 27 28 29 30 31 33 34 35 37 37 38 39 41 42 43 44 46 47 47 48 51 51 50 50 50 51 53 54 51 50 50 50 49 48 46
22 22 21 22 22 21 21 21 21 22 21 20 20 22 26 29 32 32 32 31 31 31 30 29 28 26 25 26 28 29 30 31 32 33 35 36 37 37 37 38 39 40 41 43 44 47 49 50 52 52 50 50 50 51 53 53 52 52 53 52 50 49 48
21 21 22 22 22 21 21 21 21 21 21 20 19 20 23 27 30 31 31 31 30 30 30 29 29 27 26 26 27 29 30 30 30 32 35 37 38 37 36 36 38 40 42 43 44 45 46 48 49 48 47 47 48 49 51 53 53 52 53 52 50 48 47
21 21 21 21 21 21 21 21 22 21 20 20 19 19 20 24 27 29 30 30 29 29 29 28 28 27 27 26 26 27 28 29 28 29 31 32 34 34 33 34 35 37 40 44 45 44 43 43 43 43 44 46 46 45 47 51 52 48 44 43 42 40 39
21 21 21 21 21 22 22 22 22 21 20 19 19 19 19 21 24 27 28 28 27 27 27 27 27 27 27 26 24 23 25 27 27 25 23 24 27 29 30 33 37 42 45 44 43 44 42 40 38 38 40 44 45 44 44 46 47 44 40 38 37 36 35
21 21 21 22 22 22 22 22 22 21 20 19 19 18 19 19 21 24 26 26 25 25 25 26 26 27 27 26 23 21 22 24 25 24 24 26 29 32 33 32 37 45 47 40 35 36 36 33 32 35 39 43 44 44 43 40 38 39 40 39 38 36 35
21 21 21 21 22 22 22 22 22 21 20 19 18 18 18 18 18 20 22 24 24 24 24 25 26 27 27 26 23 21 22 25 27 28 28 31 33 36 39 34 29 30 34 30 27 30 31 31 31 32 34 36 38 38 38 37 36 38 39 38 36 33 31
Wind_Direction
232 238 241 239 234 232 233 230 227 227 226 223 221 219 213 210 210 204 199 200 202 205 210 213 214 214 209 204 206 213 216 218 218 215 214 216 218 219 217 217 217 215 217 216 213 213 212 209 204 200 198 196 193 194 197 201 204 203 200 201 200 195 193
227 230 236 241 239 233 232 232 231 230 230 229 226 224 219 214 214 213 206 202 201 204 209 213 216 216 213 208 206 208 211 213 213 212 212 213 216 218 217 218 218 216 216 216 214 214 213 210 204 200 197 195 194 195 198 202 205 204 201 201 201 198 195
230 229 232 237 240 239 233 232 234 233 232 231 231 229 225 220 216 215 212 206 202 203 206 211 215 215 212 210 208 207 208 208 211 212 212 211 213 216 217 217 216 214 214 214 213 212 210 205 202 199 197 196 196 197 198 202 204 204 202 201 202 205 205
235 232 231 233 237 241 239 233 233 236 237 237 237 236 234 231 227 222 216 210 204 203 206 211 215 216 215 213 211 209 207 205 208 211 210 208 208 211 214 215 213 210 210 211 211 208 205 201 199 198 196 197 198 198 199 200 202 203 202 200 203 206 209
238 236 233 232 233 238 242 239 234 235 238 238 234 233 234 235 236 236 229 220 212 206 206 210 215 217 218 218 217 214 211 208 207 209 209 206 204 206 209 210 210 209 207 207 206 204 202 199 198 197 197 198 200 200 200 200 202 204 202 200 201 204 209
241 239 237 235 234 235 241 245 243 239 239 238 231 228 230 232 234 235 233 229 225 216 209 207 211 215 217 218 220 220 217 214 211 209 208 204 203 206 207 206 207 207 205 203 202 201 200 199 198 198 198 200 202 203 204 205 207 208 206 203 202 205 209
250 244 241 239 238 237 238 242 246 247 246 245 238 230 230 232 234 234 230 227 228 227 219 211 209 213 216 217 218 220 221 220 216 213 209 205 204 206 206 206 205 204 202 201 200 200 200 200 200 201 203 204 206 208 210 211 211 212 211 209 208 209 212
257 252 248 245 241 238 238 239 243 248 251 251 246 237 232 232 233 235 233 228 225 228 228 221 214 213 217 218 218 219 220 221 220 218 214 210 209 209 207 207 207 204 201 202 202 203 204 204 205 207 208 208 210 212 212 212 212 212 213 212 211 211 212
257 254 254 252 247 241 238 237 238 243 250 252 249 243 239 235 232 232 233 230 227 228 229 226 220 218 219 220 221 221 221 221 221 220 219 217 216 215 212 211 210 207 206 206 205 206 210 212 212 212 212 213 214 214 215 215 215 215 215 214 213 214 215
255 251 253 254 252 247 241 237 236 238 245 250 249 244 242 241 236 232 230 229 227 228 230 229 224 221 221 221 222 224 223 223 222 222 222 222 222 221 217 215 213 211 212 211 209 210 214 216 217 217 217 217 217 218 219 220 220 220 218 216 216 218 221
252 248 250 252 252 250 245 240 236 235 239 245 248 245 243 243 240 234 229 227 225 226 229 230 227 223 222 222 223 224 224 224 223 222 222 223 225 226 223 219 217 216 217 216 215 216 219 219 219 219 219 219 220 221 223 224 225 224 223 222 222 224 229
250 245 248 251 251 248 246 243 239 236 236 239 244 245 244 243 240 234 230 228 228 228 229 230 229 227 224 221 222 223 224 224 224 223 223 224 226 228 227 224 222 221 221 221 220 221 222 221 220 219 220 220 221 224 226 227 228 228 226 228 230 232 235
251 245 245 249 251 247 243 243 242 239 237 238 241 243 243 241 238 232 229 229 231 232 233 231 228 228 228 223 220 220 222 224 224 224 224 225 227 229 229 228 225 225 225 224 223 223 223 223 221 220 221 222 223 226 229 230 231 231 230 235 243 246 246
252 247 245 247 250 248 242 240 242 242 241 240 240 242 244 243 239 232 228 230 232 233 236 235 231 230 230 226 221 219 220 221 223 224 225 226 228 230 231 230 228 227 227 226 224 224 225 224 223 223 223 225 226 229 231 233 235 237 242 246 250 253 255
255 250 245 244 246 247 244 240 240 241 242 242 242 243 243 244 244 239 233 231 231 232 234 237 237 234 233 231 226 221 219 220 221 223 225 226 228 230 232 231 229 228 228 227 225 225 227 227 227 227 227 228 229 231 234 236 239 244 249 250 250 253 258
259 254 248 243 242 244 245 244 242 240 240 241 243 244 244 244 246 246 243 237 233 232 232 234 237 237 235 234 232 228 223 221 220 221 223 225 226 228 231 231 230 229 228 227 226 227 230 231 231 231 231 232 233 234 236 238 240 243 245 247 251 256 257
260 257 252 246 243 242 244 246 247 245 242 239 240 243 244 244 244 246 247 243 238 235 234 233 233 235 235 235 235 234 230 225 223 222 222 222 224 226 228 231 231 231 230 228 227 228 231 233 233 232 233 234 235 237 239 241 243 244 245 247 252 255 255
260 259 256 251 247 244 244 246 249 250 249 244 240 240 241 242 243 243 245 245 242 241 240 236 232 232 234 234 234 236 236 232 228 226 224 224 224 224 226 228 230 231 232 231 230 230 231 233 233 234 234 235 237 240 242 245 246 247 246 245 249 254 258
260 260 257 254 250 247 245 245 247 250 253 250 246 243 241 241 241 242 243 244 244 243 244 241 234 230 231 232 233 236 238 238 235 231 229 227 227 226 225 226 228 230 232 233 233 233 233 235 236 238 239 241 242 243 245 247 249 250 249 246 247 254 259
258 259 258 255 251 249 247 246 246 249 252 253 249 246 244 243 243 243 243 243 244 244 245 244 237 230 227 230 232 234 237 239 239 237 234 231 230 230 229 228 228 229 232 233 234 234 235 236 238 240 242 243 244 245 246 248 250 252 253 251 249 253 258
257 257 257 256 253 250 248 247 246 247 250 252 250 246 244 244 244 243 243 243 244 245 244 244 241 232 228 228 232 235 237 238 239 240 240 238 236 235 234 233 232 231 233 235 237 236 236 237 238 240 242 243 244 245 246 248 250 252 254 254 253 254 256
260 258 257 257 255 252 249 247 247 246 247 249 249 247 243 241 242 243 243 243 243 244 244 243 242 237 232 231 233 236 238 238 239 240 242 243 241 239 238 237 235 234 234 236 238 239 239 239 240 241 242 244 244 246 246 248 250 252 254 255 257 257 258
263 261 259 258 257 255 251 247 246 245 245 246 247 246 243 241 242 242 242 243 243 244 245 244 243 240 238 237 237 237 237 238 238 239 241 244 244 243 242 241 239 237 236 236 239 240 241 242 244 245 245 246 246 247 248 249 250 252 254 256 259 260 262
262 262 261 260 259 258 254 250 246 244 244 244 245 244 242 241 242 243 243 243 243 243 244 244 244 244 243 242 242 240 238 236 237 238 239 242 243 244 245 244 242 240 239 239 240 241 242 243 245 247 249 249 249 249 250 250 251 253 255 257 258 260 263
258 259 261 261 260 259 257 253 249 246 243 242 242 242 241 239 240 242 244 244 243 243 243 244 245 246 247 248 247 245 241 237 236 237 238 240 241 243 244 245 245 244 242 241 240 241 241 241 242 245 248 249 250 251 252 253 253 254 255 255 256 258 259
258 259 261 262 262 261 259 256 252 249 246 243 241 241 240 237 237 240 242 243 243 243 243 244 246 248 249 251 251 250 245 240 237 237 238 239 240 241 242 245 248 247 245 244 242 241 241 241 241 242 245 247 249 251 254 255 255 256 257 256 256 255 256
260 262 264 265 264 263 262 260 256 252 249 246 242 240 240 238 236 237 241 242 242 243 243 245 247 248 249 250 251 251 248 244 240 239 238 238 239 240 241 245 247 247 247 247 245 242 241 242 243 244 246 248 249 250 252 254 254 255 256 257 256 256 257
261 264 266 267 268 267 266 265 261 256 252 249 245 242 241 239 237 236 239 240 240 240 242 244 246 248 249 250 250 250 249 246 243 240 237 236 237 239 242 246 248 246 246 248 248 245 242 242 245 247 248 250 252 253 252 252 252 253 254 255 256 257 258
262 265 267 269 272 272 271 270 267 262 257 252 249 245 243 242 239 237 237 237 236 236 239 242 245 248 250 250 250 250 248 245 242 239 236 235 236 240 243 246 248 247 247 248 249 247 245 245 247 249 250 251 254 256 254 252 251 253 254 254 256 257 259
265 267 269 272 276 277 277 276 274 270 263 256 251 247 244 243 242 240 238 237 236 236 238 241 244 246 249 251 250 248 246 244 241 238 235 235 238 241 244 247 248 248 248 249 248 248 248 248 248 250 251 250 250 253 255 254 253 254 256 257 258 259 259
267 269 271 274 277 279 280 280 280 278 272 263 255 249 245 243 243 243 241 239 239 239 239 240 242 245 248 249 250 248 245 243 241 239 238 238 239 242 245 248 250 249 249 249 249 249 249 250 250 250 251 251 249 249 252 254 256 257 258 259 259 260 261
268 269 270 273 276 277 279 281 283 283 281 273 262 253 247 244 243 243 244 242 241 241 242 242 244 246 247 247 248 248 246 243 241 240 239 240 241 243 244 247 249 250 249 249 250 251 251 251 250 250 250 251 251 250 250 252 254 256 258 259 260 261 262
267 268 269 271 274 275 277 280 283 285 284 281 272 260 250 245 243 244 245 245 244 243 244 245 246 247 247 246 245 245 245 244 243 242 241 241 241 242 243 245 248 249 249 249 251 252 253 253 253 252 252 252 251 250 250 251 251 252 256 259 261 261 261
266 267 269 271 272 274 277 280 283 285 285 285 280 269 256 247 244 244 246 247 247 246 245 246 247 248 247 245 243 243 242 242 242 243 243 241 240 241 243 244 246 248 249 250 249 250 252 256 258 258 254 250 247 247 249 251 250 251 255 258 260 260 261
267 267 268 270 272 275 278 280 281 283 285 285 282 276 265 253 247 245 246 248 248 248 247 245 245 246 246 245 243 240 238 237 239 241 241 239 238 238 241 245 247 248 248 247 247 248 249 251 253 251 247 245 246 247 248 249 247 247 251 255 256 257 258
267 268 268 269 272 275 278 278 278 280 282 283 281 279 273 262 252 247 246 247 248 248 247 245 243 243 244 245 246 243 238 236 235 234 233 234 232 231 236 245 248 247 246 245 244 242 240 239 241 245 246 248 249 248 247 246 245 245 248 253 255 257 258
269 269 269 270 272 274 276 276 275 276 278 281 281 279 276 270 261 252 248 246 245 245 246 246 244 242 243 245 248 247 243 236 230 226 225 227 227 224 222 219 220 225 231 233 229 228 231 236 244 250 251 250 250 248 247 246 246 246 249 254 258 260 262
270 270 270 270 270 271 272 273 274 274 276 278 280 279 276 273 267 257 251 247 242 242 244 246 244 243 243 243 244 246 244 238 233 229 224 221 221 218 213 207 203 210 220 224 225 230 238 245 247 249 249 247 247 247 246 246 247 250 253 257 259 258 257
Height
5886 5886 5887 5888 5889 5889 5890 5891 5892 5893 5893 5894 5895 5895 5895 5896 5897 5897 5898 5899 5900 5902 5903 5904 5905 5905 5906 5906 5907 5908 5909 5909 5910 5911 5912 5913 5914 5915 5915 5916 5917 5917 5918 5919 5920 5921 5923 5924 5925 5926 5927 5928 5928 5929 5930 5930 5931 5932 5932 5932 5933 5933 5933
5885 5885 5885 5886 5887 5888 5888 5889 5891 5892 5892 5892 5893 5894 5894 5895 5895 5896 5896 5897 5898 5900 5901 5903 5904 5904 5905 5905 5906 5907 5908 5908 5909 5910 5911 5912 5913 5914 5914 5915 5916 5917 5918 5919 5920 5921 5922 5923 5924 5925 5926 5927 5928 5928 5929 5930 5931 5931 5932 5932 5933 5933 5933
5883 5884 5884 5885 5885 5885 5886 5888 5889 5890 5890 5891 5892 5893 5893 5893 5893 5894 5894 5895 5897 5898 5900 5901 5902 5903 5904 5905 5905 5906 5906 5907 5908 5909 5910 5911 5912 5913 5914 5915 5915 5916 5917 5918 5919 5920 5922 5923 5924 5925 5925 5926 5927 5928 5928 5929 5930 5931 5931 5932 5932 5933 5933
5880 5882 5882 5883 5883 5884 5884 5885 5886 5888 5889 5891 5892 5892 5892 5893 5893 5893 5893 5894 5895 5896 5898 5899 5900 5902 5903 5904 5904 5905 5905 5906 5907 5908 5909 5910 5911 5912 5913 5914 5915 5916 5917 5918 5919 5920 5922 5922 5923 5924 5925 5925 5926 5927 5928 5929 5929 5930 5930 5930 5931 5931 5932
5877 5879 5880 5881 5881 5882 5882 5883 5884 5886 5887 5888 5890 5890 5890 5891 5892 5893 5894 5894 5894 5895 5895 5897 5899 5900 5902 5903 5903 5904 5904 5905 5906 5907 5908 5909 5910 5911 5912 5913 5914 5915 5916 5918 5919 5920 5921 5922 5922 5923 5924 5925 5925 5926 5927 5927 5928 5928 5929 5929 5930 5930 5931
5874 5875 5877 5878 5879 5880 5881 5882 5883 5884 5884 5885 5886 5887 5888 5889 5890 5892 5893 5894 5894 5894 5894 5895 5897 5898 5900 5901 5902 5903 5904 5904 5905 5906 5907 5908 5909 5910 5911 5912 5914 5915 5916 5917 5918 5920 5920 5921 5921 5922 5923 5924 5925 5926 5926 5927 5927 5928 5928 5928 5929 5929 5929
5871 5872 5874 5875 5877 5878 5879 5880 5881 5882 5882 5883 5884 5885 5886 5888 5889 5890 5891 5892 5892 5893 5893 5894 5895 5896 5897 5898 5900 5901 5902 5903 5904 5905 5906 5907 5908 5910 5911 5912 5913 5914 5916 5917 5918 5919 5920 5920 5921 5922 5923 5924 5924 5925 5925 5926 5926 5927 5927 5927 5928 5928 5928
5869 5869 5870 5872 5873 5875 5876 5877 5878 5879 5880 5881 5882 5884 5885 5886 5888 5889 5890 5890 5890 5891 5892 5893 5894 5894 5895 5896 5898 5899 5901 5902 5903 5905 5906 5907 5908 5909 5910 5912 5913 5914 5915 5916 5917 5918 5919 5920 5920 5921 5922 5923 5923 5924 5924 5924 5925 5925 5925 5926 5926 5927 5927
5866 5867 5867 5869 5870 5872 5873 5875 5876 5877 5878 5879 5880 5882 5883 5884 5885 5887 5888 5889 5889 5890 5891 5891 5892 5893 5894 5895 5896 5897 5899 5900 5902 5903 5905 5906 5907 5908 5909 5911 5912 5914 5915 5915 5916 5917 5918 5919 5919 5920 5921 5921 5922 5922 5923 5923 5923 5923 5924 5925 5925 5926 5926
5863 5864 5865 5866 5867 5868 5870 5871 5873 5874 5875 5876 5878 5879 5880 5881 5883 5884 5886 5887 5888 5889 5889 5889 5890 5892 5893 5894 5895 5896 5897 5899 5901 5902 5904 5905 5906 5907 5908 5910 5911 5913 5914 5914 5915 5916 5916 5917 5918 5919 5919 5919 5920 5920 5921 5921 5922 5922 5923 5924 5924 5925 5925
5861 5861 5862 5863 5864 5865 5866 5868 5869 5871 5872 5873 5875 5876 5877 5878 5880 5881 5883 5885 5885 5886 5887 5888 5888 5890 5891 5893 5894 5895 5896 5897 5899 5901 5902 5903 5904 5905 5907 5908 5910 5911 5912 5913 5914 5914 5914 5915 5916 5917 5917 5917 5918 5919 5919 5920 5920 5921 5922 5923 5923 5923 5924
5858 5859 5860 5860 5861 5862 5863 5865 5866 5867 5869 5870 5871 5872 5873 5875 5876 5878 5880 5882 5883 5883 5884 5885 5887 5888 5889 5890 5891 5893 5895 5896 5897 5899 5900 5901 5902 5903 5905 5907 5908 5910 5911 5911 5912 5912 5913 5913 5914 5915 5915 5916 5916 5917 5918 5918 5919 5919 5920 5921 5921 5921 5922
5856 5857 5857 5858 5859 5860 5861 5862 5863 5864 5865 5867 5868 5869 5870 5871 5872 5874 5876 5879 5880 5881 5881 5883 5885 5886 5887 5888 5889 5890 5892 5894 5895 5896 5897 5899 5900 5901 5903 5905 5907 5908 5908 5909 5910 5911 5911 5911 5912 5913 5913 5914 5915 5915 5916 5916 5916 5916 5918 5920 5921 5921 5921
5854 5855 5856 5856 5857 5858 5859 5860 5860 5861 5862 5864 5865 5866 5867 5868 5869 5870 5872 5875 5877 5878 5880 5881 5883 5884 5884 5885 5887 5888 5889 5890 5892 5893 5895 5896 5898 5900 5901 5903 5904 5905 5906 5907 5908 5908 5909 5909 5910 5910 5911 5912 5913 5913 5914 5914 5914 5915 5917 5920 5920 5920 5920
5852 5853 5854 5854 5855 5855 5856 5857 5858 5858 5859 5861 5862 5863 5864 5866 5867 5868 5869 5871 5873 5875 5877 5878 5880 5882 5882 5884 5885 5886 5886 5887 5888 5890 5892 5894 5896 5898 5899 5900 5902 5903 5904 5905 5906 5906 5906 5907 5908 5908 5909 5909 5910 5911 5911 5912 5913 5915 5917 5918 5918 5918 5918
5850 5850 5851 5851 5852 5852 5853 5853 5854 5855 5856 5857 5859 5860 5861 5862 5864 5865 5866 5867 5869 5871 5873 5875 5877 5879 5880 5882 5884 5884 5884 5884 5885 5887 5889 5891 5893 5895 5896 5898 5899 5900 5901 5902 5903 5904 5904 5905 5906 5906 5907 5907 5908 5909 5909 5911 5913 5914 5914 5915 5916 5916 5916
5847 5847 5848 5848 5849 5849 5850 5850 5851 5852 5853 5855 5856 5857 5858 5859 5860 5862 5863 5864 5865 5867 5869 5871 5874 5876 5878 5880 5881 5881 5882 5882 5883 5884 5886 5887 5889 5891 5893 5895 5896 5898 5899 5900 5901 5901 5902 5903 5904 5904 5905 5905 5906 5907 5908 5910 5911 5911 5911 5913 5914 5913 5912
5844 5844 5845 5845 5846 5846 5847 5847 5848 5849 5850 5852 5853 5854 5855 5856 5857 5858 5859 5860 5862 5863 5865 5867 5870 5872 5875 5877 5878 5879 5880 5881 5882 5883 5884 5885 5886 5887 5889 5891 5893 5895 5896 5897 5898 5899 5899 5900 5901 5902 5902 5903 5904 5905 5907 5908 5908 5908 5909 5910 5910 5909 5909
5841 5841 5841 5842 5843 5844 5844 5844 5845 5846 5847 5849 5850 5851 5852 5853 5854 5855 5856 5857 5858 5859 5861 5864 5866 5868 5871 5873 5875 5876 5877 5878 5880 5881 5882 5882 5883 5884 5885 5887 5889 5892 5893 5894 5895 5896 5897 5898 5899 5900 5900 5901 5902 5903 5904 5904 5904 5905 5905 5906 5907 5906 5905
5838 5838 5838 5839 5840 5841 5841 5842 5842 5843 5844 5846 5847 5848 5849 5850 5851 5852 5853 5854 5855 5856 5857 5859 5861 5864 5866 5869 5871 5872 5873 5875 5877 5878 5879 5880 5880 5881 5883 5884 5886 5888 5890 5891 5892 5893 5895 5895 5896 5897 5897 5898 5899 5900 5901 5901 5901 5901 5902 5903 5904 5903 5902
5834 5835 5835 5835 5836 5838 5838 5839 5840 5840 5841 5842 5843 5844 5846 5846 5847 5848 5849 5850 5852 5853 5854 5855 5857 5859 5862 5864 5866 5868 5869 5871 5873 5875 5876 5877 5878 5880 5881 5882 5884 5885 5887 5888 5890 5891 5892 5892 5893 5893 5893 5894 5895 5896 5896 5897 5897 5897 5898 5899 5900 5900 5900
5831 5832 5832 5832 5833 5834 5835 5836 5836 5837 5838 5839 5840 5841 5842 5843 5844 5845 5846 5847 5848 5849 5850 5852 5853 5855 5857 5860 5862 5863 5864 5866 5868 5870 5872 5874 5875 5876 5878 5879 5880 5881 5883 5885 5886 5888 5889 5889 5890 5890 5890 5890 5891 5891 5892 5893 5893 5894 5895 5896 5897 5897 5898
5828 5829 5829 5829 5830 5830 5832 5832 5833 5834 5835 5836 5837 5838 5839 5840 5841 5841 5842 5843 5845 5846 5847 5848 5850 5851 5853 5855 5856 5858 5859 5861 5863 5866 5868 5869 5871 5873 5874 5875 5877 5878 5879 5881 5882 5884 5886 5887 5887 5887 5887 5886 5887 5888 5888 5889 5889 5890 5891 5892 5893 5894 5894
5826 5826 5826 5826 5826 5827 5828 5829 5830 5831 5832 5833 5833 5834 5835 5836 5837 5838 5839 5840 5841 5843 5844 5845 5845 5846 5848 5850 5851 5853 5854 5856 5858 5860 5862 5865 5867 5869 5870 5871 5872 5874 5876 5877 5879 5880 5881 5882 5883 5883 5883 5883 5883 5884 5884 5885 5885 5886 5887 5887 5888 5889 5889
5823 5823 5823 5823 5823 5824 5824 5825 5826 5827 5828 5829 5830 5831 5832 5833 5834 5835 5835 5836 5838 5839 5840 5841 5841 5842 5843 5845 5846 5848 5850 5851 5853 5855 5857 5860 5863 5864 5865 5866 5868 5870 5872 5873 5874 5875 5876 5877 5877 5877 5877 5878 5879 5880 5880 5881 5882 5882 5882 5882 5882 5883 5883
5821 5821 5821 5821 5821 5821 5821 5821 5822 5823 5824 5825 5826 5827 5828 5830 5831 5831 5832 5833 5834 5835 5836 5837 5838 5839 5840 5840 5841 5843 5845 5846 5848 5850 5853 5856 5857 5859 5860 5862 5864 5866 5868 5868 5869 5870 5871 5871 5871 5870 5871 5873 5875 5876 5876 5876 5878 5878 5878 5878 5877 5877 5877
5818 5818 5818 5818 5818 5818 5818 5818 5818 5819 5820 5821 5822 5824 5825 5826 5827 5828 5829 5830 5831 5831 5832 5833 5834 5835 5836 5836 5837 5838 5840 5841 5843 5846 5848 5850 5851 5853 5855 5857 5859 5861 5863 5863 5865 5866 5865 5865 5865 5865 5866 5868 5870 5870 5870 5871 5872 5873 5873 5873 5873 5872 5873
5815 5815 5815 5815 5814 5814 5814 5814 5814 5815 5816 5817 5818 5820 5821 5822 5823 5824 5825 5827 5827 5828 5829 5830 5830 5831 5832 5833 5834 5834 5835 5837 5839 5840 5842 5844 5846 5848 5850 5853 5855 5856 5857 5858 5859 5860 5860 5860 5861 5861 5862 5865 5865 5864 5865 5865 5866 5867 5868 5867 5867 5867 5868
5811 5811 5811 5811 5811 5811 5811 5811 5811 5811 5812 5813 5814 5815 5817 5818 5819 5821 5822 5823 5824 5825 5826 5826 5827 5828 5828 5829 5830 5831 5832 5833 5834 5835 5837 5838 5840 5843 5845 5847 5849 5850 5852 5852 5853 5854 5854 5856 5857 5857 5859 5861 5860 5858 5858 5860 5861 5861 5862 5862 5862 5862 5863
5808 5808 5808 5808 5808 5808 5808 5807 5807 5808 5808 5809 5810 5811 5813 5814 5815 5816 5818 5819 5820 5822 5822 5823 5823 5824 5825 5825 5826 5827 5828 5829 5830 5831 5832 5833 5835 5837 5840 5842 5843 5845 5846 5847 5847 5848 5849 5851 5852 5852 5854 5856 5855 5852 5851 5853 5855 5856 5856 5856 5857 5858 5858
5805 5805 5805 5805 5805 5805 5805 5804 5804 5804 5804 5805 5806 5807 5808 5810 5811 5812 5813 5815 5817 5818 5818 5819 5820 5820 5821 5822 5822 5823 5824 5825 5826 5827 5828 5829 5831 5833 5835 5837 5838 5839 5841 5841 5842 5842 5843 5845 5846 5846 5848 5849 5849 5848 5846 5846 5848 5850 5850 5851 5852 5852 5853
5802 5802 5802 5802 5802 5802 5802 5801 5801 5801 5801 5801 5802 5803 5804 5805 5807 5808 5809 5811 5812 5814 5815 5815 5816 5816 5817 5818 5818 5819 5819 5820 5821 5822 5823 5825 5826 5828 5830 5832 5833 5833 5834 5836 5836 5837 5839 5839 5839 5840 5841 5842 5843 5843 5842 5842 5844 5843 5843 5843 5845 5847 5848
5798 5799 5799 5799 5799 5799 5799 5799 5798 5798 5798 5798 5798 5799 5800 5801 5802 5804 5805 5806 5808 5809 5810 5811 5812 5813 5813 5814 5814 5815 5815 5815 5817 5817 5818 5820 5821 5823 5825 5827 5828 5829 5829 5830 5831 5832 5833 5833 5832 5833 5835 5837 5837 5837 5836 5837 5838 5837 5836 5837 5840 5842 5843
5795 5795 5795 5796 5796 5796 5796 5796 5796 5795 5795 5795 5795 5796 5796 5797 5798 5800 5801 5802 5803 5805 5806 5807 5808 5809 5809 5810 5810 5810 5811 5811 5812 5813 5813 5814 5816 5818 5820 5822 5823 5824 5824 5824 5825 5826 5826 5827 5827 5829 5830 5829 5829 5829 5829 5830 5831 5831 5831 5833 5835 5836 5837
5792 5792 5792 5793 5793 5794 5794 5794 5793 5793 5793 5793 5793 5792 5793 5793 5794 5796 5797 5798 5799 5800 5801 5803 5804 5805 5805 5806 5806 5806 5807 5807 5808 5808 5808 5809 5811 5814 5816 5816 5817 5818 5818 5818 5819 5820 5821 5821 5820 5821 5822 5821 5821 5823 5823 5823 5824 5827 5828 5829 5830 5831 5831
5789 5789 5790 5790 5790 5791 5791 5791 5790 5790 5790 5790 5790 5790 5790 5790 5791 5792 5793 5794 5795 5796 5797 5799 5800 5801 5801 5802 5802 5802 5803 5803 5804 5805 5805 5806 5808 5809 5812 5813 5813 5812 5812 5812 5813 5814 5814 5813 5813 5815 5816 5816 5816 5818 5818 5819 5821 5823 5824 5825 5825 5826 5826
5786 5786 5787 5787 5787 5787 5787 5787 5788 5788 5788 5787 5787 5787 5787 5787 5788 5789 5790 5791 5792 5793 5794 5794 5796 5797 5797 5798 5798 5799 5799 5799 5801 5801 5802 5802 5801 5801 5805 5807 5806 5803 5803 5805 5807 5807 5808 5809 5810 5811 5811 5811 5812 5814 5815 5816 5818 5819 5819 5820 5820 5821 5821
5783 5783 5783 5784 5784 5784 5784 5784 5785 5785 5785 5785 5785 5784 5784 5784 5785 5785 5786 5787 5788 5789 5790 5791 5792 5793 5794 5794 5795 5795 5795 5796 5797 5797 5797 5796 5795 5796 5799 5801 5799 5798 5799 5801 5802 5802 5803 5805 5805 5806 5806 5807 5808 5810 5811 5812 5813 5814 5814 5815 5815 5815 5816